sat.trackr.live / text

‹ back to catalog

STARLINK-36665

NORAD 68968 · 2026-099T

PAYLOAD ACTIVE UNKNOWN

§ Identity

Operator
Country
US
Launch date
2026-05-01
Launch site
AFETR
Launch vehicle
Mass (kg)
RCS (m²)

Purposes: comms

External: N2YO · Heavens-Above · Gunter

§ Orbital elements

Epoch: 2026-05-25T04:00:03.998880Z

Period
91.88 min
Inclination
53.1591°
Eccentricity
0.0000708
Mean motion
15.67262861 rev/d
Perigee alt
366.3 km
Apogee alt
367.2 km
Semi-major
6,744.9 km
B*
-2.0834e-2
RAAN
269.9502°
Arg perigee
76.5424°
Mean anomaly
275.5580°
Rev number
501

§ Raw data

STARLINK-366651 68968U 26099T   26145.16671295 -.02009230  00000+0 -20834-1 0  99932 68968  53.1591 269.9502 0000708  76.5424 275.5580 15.67262861  5011

JSON: /api/v1/satellites/68968 · /tle

For live sub-satellite position, see the globe view (requires WebGL).

§ Visibility from observer

Set your observer location to see the next 7 days of passes ≥ 10°. The values pass through the URL so the page stays shareable.

No JS? Fill the form by hand. The geolocation button needs JavaScript.